Regional Weather Roundup
Issued by NWS Jackson, KY

Home | Current Version | Previous Version | Text Only | Print | Product List | Glossary On
Versions: 1 2 3 4 5 6 7 8 9 10 11 12 13 14 15 16 17 18 19 20 21 22 23 24 25 26 27 28 29 30 31 32 33 34 35 36 37 38 39 40 41 42 43 44 45 46 47 48 49 50
000
ASUS43 KJKL 240019
RWRJKL

EAST KENTUCKY HOURLY WEATHER ROUNDUP
NATIONAL WEATHER SERVICE JACKSON KY
800 PM EDT WED APR 23 2014

NOTE: "FAIR" INDICATES FEW OR NO CLOUDS BELOW 12,000 FEET WITH
NO SIGNIFICANT WEATHER AND/OR OBSTRUCTIONS TO VISIBILITY.

* THESE REPORTS ARE NOT UNDER NWS QUALITY CONTROL AND MAY NOT
  REPORT WEATHER SUCH AS PRECIPITATION AND FOG.

KYZ079-080-083-085-087-088-110-112-115-119-120-240100
...EASTERN KENTUCKY...

CITY           SKY/WX    TMP DP  RH WIND       PRES   REMARKS
JACKSON        CLEAR     58  27  30 VRB5      30.02S
6HR MIN TEMP:  57; 6HR MAX TEMP:  64;

LONDON         CLEAR     60  30  32 N7        30.01S
6HR MIN TEMP:  60; 6HR MAX TEMP:  66;

SOMERSET*      CLEAR     55  32  41 NE8       30.03F
MIDDLESBORO*   CLEAR     62  29  28 N6        29.99S
6HR MIN TEMP:  62; 6HR MAX TEMP:  67;

HARLAN APT*    CLEAR     61  23  23 N5        30.00S
BLACK MTN*       N/A     46  23  39 NE2         N/A
PIKEVILLE APT* CLEAR     55  27  33 N5        30.01R
BIG SANDY*     CLEAR     56  31  38 NE5       30.03R
6HR MIN TEMP:  57; 6HR MAX TEMP:  63;

ASHLAND*       CLEAR     57  30  35 N3        30.04R
MOREHEAD APT*  CLEAR     55  32  41 NW7       30.07R
$$

KYZ035-036-041-042-044-050-067-078-099-240100
...CENTRAL KENTUCKY...

CITY           SKY/WX    TMP DP  RH WIND       PRES   REMARKS
MT STERLING*   CLEAR     55  34  44 E7        30.06R
FLEMING/MASON* CLEAR     55  34  44 N3        30.06S
RICHMOND*      CLEAR     55  32  41 N3        30.04S
LEXINGTON      CLEAR     57  34  41 NE6       30.04S
6HR MIN TEMP:  55; 6HR MAX TEMP:  63;

FRANKFORT      CLEAR     60  29  30 N6        30.03S
6HR MIN TEMP:  56; 6HR MAX TEMP:  63;

$$

KYZ091>093-OHZ055-061-077-WVZ005-015-034-035-042-240100
...SOUTHERN OHIO/WEST VIRGINIA...

CITY           SKY/WX    TMP DP  RH WIND       PRES   REMARKS
COVINGTON      PTCLDY    58  31  35 NE9       30.04F
COLUMBUS       PTCLDY    54  31  41 NE10      30.06R
DAYTON         PTCLDY    55  32  41 N6        30.07S
WILMINGTON     CLEAR     54  31  41 N5        30.06R
HUNTINGTON     CLEAR     57  31  37 N6        30.03R
CHARLESTON     CLEAR     57  31  37 N10       30.02R
PINEVILLE*     CLEAR     58  31  35 MISG      30.05R
BECKLEY        CLEAR     51  26  37 N14       30.00R
BLUEFIELD      CLEAR     56  23  27 NW9G16    30.00R
$$

VAZ002-007-008-TNZ017-027-036-066-071-240100
...SOUTHWEST VIRGINIA/EAST TENNESSEE...

CITY           SKY/WX    TMP DP  RH WIND       PRES   REMARKS
WISE*          CLEAR     55  21  26 N5        30.02R
ABINGDON*      CLEAR     60  23  24 N6        29.99R
BRISTOL        CLEAR     60  23  24 N6        29.97R
KNOXVILLE      CLEAR     63  32  31 NE6       29.95S
OAK RIDGE      CLEAR     67  28  23 E5        29.97S
CROSSVILLE     CLEAR     61  26  26 N6        30.00R
NASHVILLE      PTCLDY    64  35  34 N8        29.99S
$$

...KEY TO REMARKS...
VSB - VISIBILITY IN MILES
WCI - WIND CHILL INDEX
HX  - HEAT INDEX

$$



USA.gov is the U.S. government's official web portal to all federal, state and local government web resources and services.